Location: Borojevi?i
(45.0486°N, 16.2297°E)
Time: 11:57:30
(UTC+00:00)

H-2A R/B - Visible Passes

Search period start: 04 December 2020 00:00
Search period end: 14 December 2020 00:00
Orbit: 733 x 837 km, 98.2° (Epoch: 03 December)

Date Brightness Start Highest point End Pass type
(mag) Time Alt. Az. Time Alt. Az. Time Alt. Az.
04 Dec 3.8 16:01:32 10° ENE 16:03:01 11° NE 16:04:29 10° NE visible
04 Dec 2.0 17:42:09 66° NNE 17:42:09 66° NNE 17:46:40 10° N visible
04 Dec 4.8 19:22:46 14° WNW 19:22:46 14° WNW 19:24:25 10° NW visible
05 Dec 2.4 17:10:52 39° ENE 17:10:52 39° ENE 17:15:25 10° N visible
05 Dec 4.0 18:51:30 25° WNW 18:51:30 25° WNW 18:54:35 10° NW visible
06 Dec 5.2 05:18:06 10° ENE 05:19:29 11° E 05:20:50 10° ESE visible
06 Dec 3.1 16:39:34 22° ENE 16:39:58 22° ENE 16:43:50 10° NNE visible
06 Dec 3.0 18:20:11 44° WNW 18:20:11 44° WNW 18:24:02 10° NNW visible
07 Dec 3.7 16:08:15 12° ENE 16:09:22 13° ENE 16:11:30 10° NNE visible
07 Dec 2.1 17:48:52 64° N 17:48:52 64° N 17:53:07 10° NNW visible
07 Dec 4.9 19:29:29 12° WNW 19:29:29 12° WNW 19:30:17 10° WNW visible
08 Dec 2.3 17:17:33 44° NE 17:17:33 44° NE 17:21:56 10° N visible
08 Dec 4.2 18:58:09 21° WNW 18:58:09 21° WNW 19:00:50 10° NW visible
09 Dec 5.0 05:23:45 10° ENE 05:26:01 13° E 05:28:19 10° ESE visible
09 Dec 2.9 16:46:12 25° ENE 16:46:22 25° ENE 16:50:25 10° N visible
09 Dec 3.2 18:26:49 38° WNW 18:26:49 38° WNW 18:30:24 10° NNW visible
10 Dec 3.5 16:14:50 14° ENE 16:15:44 14° ENE 16:18:20 10° NNE visible
10 Dec 2.2 17:55:27 60° NNW 17:55:27 60° NNW 17:59:33 10° NNW visible
10 Dec 5.1 19:36:04 10° WNW 19:36:04 10° WNW 19:29:40 - SW visible
11 Dec 2.1 17:24:03 49° NE 17:24:03 49° NE 17:28:25 10° N visible
11 Dec 4.4 19:04:40 19° WNW 19:04:40 19° WNW 19:07:02 10° NW visible
12 Dec 4.9 05:29:40 10° NE 05:32:33 15° E 05:35:26 10° SE visible
12 Dec 2.7 16:52:38 28° ENE 16:52:46 28° ENE 16:56:59 10° N visible
12 Dec 3.4 18:27:18 10° SSW 18:33:15 34° WNW 18:36:44 10° NNW visible
13 Dec 3.4 16:21:12 15° ENE 16:22:06 16° ENE 16:25:04 10° NNE visible
13 Dec 2.3 17:55:52 10° S 18:01:49 59° NW 18:05:57 10° NNW visible
